Find Raduga

NORAD ID: 11708 Int'l Des: 1980-016 Owner: GUKOSR Country: SU operational
HEOCIRCULAR

实时位置

正在加载3D地球...

关于 Raduga

正在加载描述...

即将过境

Passes for default location (London). Set your location on the main map for personalized predictions.

高度历史

Loading altitude history...

两行轨道根数

1 11708U 80016A 26120.92679012 .00000047 00000-0 00000-0 0 9990
2 11708 5.8319 287.0919 0002261 341.8428 344.4235 1.00207089121682
Epoch: Apr 30, 2026 • Age: 6 hours

当前状态

高度 35801.1 km
速度 3.07 km/s
星下点 4.82°N, 60.67°E
发射日期 Feb 20, 1980
运行时间 46.1 years
类型 other

技术详情

分类 Payload
质量 1965.00 kg
干质量 1800.00 kg
总质量 1965.00 kg
长度 5.50 m
直径 2.50 m
跨度 9.50 m
形状 Step Cyl + 2 Pan
制造商 NPOPM
平台类型 Raduga
阶段状态 In Orbit
所有者/国家 GUKOSR/SU

Most Searched